This is the latest recevied weather packets stored in our database for station/object WA6ODQ-13. If no packets are shown the sender has not sent any weather packets the latest 10 day(s).
| Time | Temp. | Humidity | Pressure | Rain* | Wind** | Luminosity | Snow |
|---|---|---|---|---|---|---|---|
| 1777749928 | 17.22° C | 73% | 1010.7 hPa | 0 mm | - | 569 W/m² | - |
| 1777749626 | 17.22° C | 74% | 1010.8 hPa | 0 mm | - | 529 W/m² | - |
| 1777749323 | 17.22° C | 74% | 1010.9 hPa | 0 mm | - | 470 W/m² | - |
| 1777749021 | 16.67° C | 74% | 1010.9 hPa | 0 mm | - | 548 W/m² | - |
| 1777748718 | 16.67° C | 75% | 1011 hPa | 0 mm | - | 465 W/m² | - |
| 1777748110 | 16.11° C | 77% | 1010.7 hPa | 0 mm | - | 574 W/m² | - |
| 1777747806 | 15.56° C | 78% | 1010.6 hPa | 0 mm | - | 475 W/m² | - |
| 1777747496 | 15.56° C | 78% | 1010.7 hPa | 0 mm | - | 452 W/m² | - |
| 1777746586 | 15.56° C | 80% | 1010.6 hPa | 0 mm | - | 261 W/m² | - |
| 1777746280 | 16.11° C | 79% | 1010.6 hPa | 0 mm | - | 343 W/m² | - |
| 1777745976 | 15.56° C | 79% | 1010.7 hPa | 0 mm | - | 289 W/m² | - |
| 1777745675 | 16.11° C | 78% | 1010.6 hPa | 0 mm | - | 312 W/m² | - |
| 1777745373 | 16.67° C | 77% | 1010.5 hPa | 0 mm | - | 386 W/m² | - |
| 1777744766 | 16.11° C | 79% | 1010.4 hPa | 0 mm | - | 638 W/m² | - |
| 1777744460 | 15.56° C | 81% | 1010.7 hPa | 0 mm | - | 482 W/m² | - |
| 1777743551 | 14.44° C | 84% | 1010.8 hPa | 0 mm | - | 166 W/m² | - |
| 1777743248 | 14.44° C | 85% | 1010.6 hPa | 0 mm | - | 151 W/m² | - |
| 1777742338 | 14.44° C | 84% | 1010.6 hPa | 0 mm | - | 345 W/m² | - |
| 1777741732 | 13.89° C | 85% | 1010.9 hPa | 0 mm | - | 248 W/m² | - |
| 1777741124 | 13.89° C | 85% | 1010.7 hPa | 0 mm | - | 208 W/m² | - |
| 1777740518 | 13.89° C | 85% | 1010.5 hPa | 0 mm | - | 174 W/m² | - |
| 1777739912 | 13.89° C | 85% | 1010.4 hPa | 0 mm | - | 148 W/m² | - |
| 1777739306 | 13.89° C | 85% | 1010.4 hPa | 0 mm | - | 130 W/m² | - |
| 1777738699 | 13.33° C | 86% | 1010.3 hPa | 0 mm | - | 100 W/m² | - |
| 1777738093 | 13.33° C | 87% | 1010.1 hPa | 0 mm | - | 83 W/m² | - |
* Rain latest hour (hover to see other rain measurements)
** Current wind speed in m/s (hover to see current wind gust speed)